Location: Boca de Tacagua
(10.5333°N, 66.9833°W)
Time: 02:38:39
(UTC+00:00)

Cosmos 1666 Rocket - Pass Details

Date: 04 July 2022
Orbit: 602 x 633 km, 82.5° (Epoch: 17 August)

Event Time Altitude Azimuth Distance (km) Brightness Sun altitude
Exits shadow 07:27:10 19° 62° (ENE) 1,484 6.1 -35.7°
Drops below altitude 10° 07:29:06 10° 40° (NE) 1,993 6.9 -35.4°
Sets 07:31:42 0° 25° (NNE) 2,904 7.8 -34.8°
